Regional Weather Roundup
Issued by NWS

Home | Current Version | Previous Version | Text Only | Print | Product List | Glossary On
Versions: 1 2 3 4 5 6 7 8 9 10 11 12 13 14 15 16 17 18 19 20 21 22 23 24 25 26 27 28 29 30 31 32 33 34 35 36 37 38 39 40 41 42 43 44 45 46 47 48 49 50
000
ASCA42 TJSJ 212211
RWRPR
PUERTO RICO/U.S. VIRGIN ISLANDS HOURLY WEATHER ROUNDUP
NATIONAL WEATHER SERVICE SAN JUAN PR
600 PM AST TUE OCT 21 2014

PRZ001-004-212300-
PUERTO RICO

CITY           SKY/WX    TMP DP  RH WIND       PRES   REMARKS
SAN JUAN LMM   PTCLDY    82  75  78 E12       29.90R
MAYAGUEZ       LGT RAIN  81  73  78 W9        29.92S
AGUADILLA      MOCLDY    82  73  74 E10       29.91F THUNDER
CEIBA          PTCLDY    82  73  74 E3        29.93R
$$

PRZ006-007-212300-
U.S. VIRGIN ISLANDS

CITY           SKY/WX    TMP DP  RH WIND       PRES   REMARKS
CHRISTIANSTED  PTCLDY    82  72  69 E8        29.91R
$$

HOURLY WEATHER ROUNDUP FOR THE NEWS MEDIA

CITY           SKY/WX    TMP DP  RH WIND       PRES   REMARKS
MIAMI          CLOUDY    77  70  79 CALM      29.94R
ORLANDO        CLOUDY    83  66  56 N6        29.91S
NEW YORK       PTCLDY    61  52  72 E5        29.84R
NEWARK         MOCLDY    63  55  75 E5        29.83R
CHICAGO        CLOUDY    49  39  68 N15       30.20R
HARTFORD       MOCLDY    60  57  89 E6        29.89S
BOSTON         PTCLDY    55  53  93 N7        29.93R
DALLAS         MOSUNNY   81  58  45 S10       30.02F
PHILADELPHIA   MOCLDY    66  48  52 SW6       29.82R



USA.gov is the U.S. government's official web portal to all federal, state and local government web resources and services.